FW6165 Weather Reports


time (UTC)temp
F
wind
direction
speed
knots
gust
knots
rain 1hr
in
rain 24hr
in
rain mn
in
humidity
%
barometer
mb
20260504130738 56 278 0.0 0.9 0.00 0.00 0.00 63 1013.9
20260504110628 48 266 0.0 0.0 0.00 0.00 0.00 84 1014.6
20260504081616 47 267 0.0 0.0 0.00 0.00 0.00 85 1014.9
20260504080616 46 267 0.0 0.0 0.00 0.00 0.00 85 1014.9
20260504050328 43 266 0.0 0.0 0.00 0.00 0.00 84 1014.9
20260504045327 43 267 0.0 0.0 0.00 0.00 0.00 84 1015.2
20260504044326 43 267 0.0 0.0 0.00 0.00 0.00 84 1015.2
20260504043326 43 267 0.0 0.0 0.00 0.00 0.00 84 1015.2
20260504042325 43 267 0.0 0.0 0.00 0.00 0.00 84 1015.2
20260504041324 43 267 0.0 0.0 0.00 0.00 0.00 83 1015.2
20260504040252 43 267 0.0 0.0 0.00 0.00 0.00 83 1015.2
20260504035252 43 267 0.0 0.0 0.00 0.00 0.00 82 1015.2
20260504034149 43 267 0.0 0.0 0.00 0.00 0.00 82 1014.9
20260504033148 43 266 0.0 0.0 0.00 0.00 0.00 81 1014.9
20260504032147 44 267 0.0 0.0 0.00 0.00 0.00 80 1014.9
20260504031044 44 267 0.0 0.0 0.00 0.00 0.00 79 1014.6
20260504030044 44 267 0.0 0.0 0.00 0.00 0.00 78 1014.6
20260504025012 44 267 0.0 0.0 0.00 0.00 0.00 77 1014.6
20260504023940 45 267 0.0 0.0 0.00 0.00 0.00 76 1014.6
20260504022939 45 266 0.0 0.0 0.00 0.00 0.00 75 1014.6
20260504021938 46 266 0.0 0.0 0.00 0.00 0.00 75 1014.6
20260504020938 46 266 0.0 0.0 0.00 0.00 0.00 73 1014.6
20260504015937 47 266 0.0 0.0 0.00 0.00 0.00 72 1014.6
20260504014834 47 267 0.0 0.0 0.00 0.00 0.00 70 1014.2
20260504013833 48 266 0.0 0.0 0.00 0.00 0.00 68 1014.6
20260504012832 48 267 0.0 0.0 0.00 0.00 0.00 66 1014.2
20260504011832 49 267 0.0 0.0 0.00 0.00 0.00 65 1014.2
20260504010831 50 267 0.0 0.0 0.00 0.00 0.00 63 1014.2
20260504005830 51 267 0.0 0.0 0.00 0.00 0.00 60 1014.2
20260504004830 51 266 0.0 0.0 0.00 0.00 0.00 60 1014.2
20260504003829 52 267 0.0 0.0 0.00 0.00 0.00 57 1013.9
20260504002757 53 267 0.0 0.0 0.00 0.00 0.00 56 1013.9
20260504001725 54 266 0.0 0.0 0.00 0.00 0.00 53 1013.9
20260504000724 55 266 0.0 0.0 0.00 0.00 0.00 51 1013.5
20260503235723 56 267 0.0 0.0 0.00 0.00 0.00 49 1013.5
20260503234723 56 266 0.0 0.0 0.00 0.00 0.00 47 1013.5
20260503233722 57 266 0.0 0.0 0.00 0.00 0.00 47 1013.2
20260503232722 58 267 0.0 0.0 0.00 0.00 0.00 46 1013.2
20260503231721 58 267 0.0 0.0 0.00 0.00 0.00 43 1013.2
20260503230720 59 267 0.0 0.9 0.00 0.00 0.00 45 1013.2
20260503225719 59 267 0.9 0.9 0.00 0.00 0.00 44 1013.2
20260503224718 60 310 0.0 0.0 0.00 0.00 0.00 41 1013.2
20260503223616 60 124 0.0 0.9 0.00 0.00 0.00 39 1013.2
20260503222615 60 118 0.9 0.9 0.00 0.00 0.00 41 1013.2
20260503221614 60 115 0.9 0.9 0.00 0.00 0.00 39 1013.2
20260503220614 61 115 0.0 0.9 0.00 0.00 0.00 41 1013.2
20260503215542 61 113 0.9 1.7 0.00 0.00 0.00 38 1013.2
20260503214541 61 256 0.0 0.9 0.00 0.00 0.00 38 1013.2
20260503213540 61 134 0.0 2.6 0.00 0.00 0.00 36 1013.2
20260503212540 61 24 0.9 2.6 0.00 0.00 0.00 36 1013.2
20260503211539 61 281 0.0 2.6 0.00 0.00 0.00 35 1013.2
20260503210538 61 266 0.0 1.7 0.00 0.00 0.00 35 1013.2
20260503205435 61 10 0.9 1.7 0.00 0.00 0.00 38 1013.2
20260503204404 61 289 0.9 0.9 0.00 0.00 0.00 35 1013.2
20260503203403 60 358 0.9 1.7 0.00 0.00 0.00 37 1013.5
20260503202402 60 281 0.0 3.5 0.00 0.00 0.00 36 1013.5
20260503201401 60 302 0.0 3.5 0.00 0.00 0.00 39 1013.5
20260503200401 60 256 0.0 2.6 0.00 0.00 0.00 38 1013.9
20260503195400 60 328 1.7 2.6 0.00 0.00 0.00 38 1013.9
20260503194359 61 302 0.9 4.3 0.00 0.00 0.00 37 1014.2
20260503193327 60 292 0.9 5.2 0.00 0.00 0.00 37 1014.2
20260503192256 60 352 0.9 3.5 0.00 0.00 0.00 37 1014.2
20260503191255 59 45 1.7 3.5 0.00 0.00 0.00 38 1014.6
20260503190254 60 52 0.9 6.1 0.00 0.00 0.00 40 1014.6
20260503185254 59 278 0.9 7.0 0.00 0.00 0.00 39 1014.6
20260503184253 59 357 0.0 3.5 0.00 0.00 0.00 39 1014.6
20260503183221 59 32 0.9 3.5 0.00 0.00 0.00 39 1014.9
20260503182221 58 25 1.7 2.6 0.00 0.00 0.00 42 1014.9
20260503181220 58 305 0.9 2.6 0.00 0.00 0.00 40 1015.2
20260503180219 58 85 0.9 4.3 0.00 0.00 0.00 39 1015.2
20260503175218 57 304 0.9 6.1 0.00 0.00 0.00 40 1015.2
20260503174146 58 58 2.6 6.1 0.00 0.00 0.00 37 1015.2
20260503173114 57 256 0.9 4.3 0.00 0.00 0.00 38 1015.2
20260503172113 57 280 0.0 4.3 0.00 0.00 0.00 39 1015.2
20260503171113 57 359 1.7 3.5 0.00 0.00 0.00 41 1015.2
20260503170112 56 250 0.0 2.6 0.00 0.00 0.00 40 1015.6
20260503160108 55 284 0.9 2.6 0.00 0.00 0.00 42 1015.6